星链-34672(STARLINK-34672)

导读

STARLINK-34672是美国SpaceX公司星链(Starlink)星座中的一颗低轨通信卫星,于2025年10月7日发射入轨。该卫星运行在近地点399公里、远地点401公里的近地轨道,轨道倾角53.1596°,每日绕地球15.55圈,旨在为全球提供高速宽带互联网接入服务,采用自主避撞技术,退役后会主动离轨坠入大气层烧毁。

基本信息
目录编号:
65894
目录名称:
STARLINK-34672
国际标识:
2025-224N
轨道中心:
EARTH
卫星名称:
星链-34672
卫星全名:
星链-34672(STARLINK-34672)
卫星状态:
在轨 (已飞行343 天)
发射日期:
2025-10-07 UTC
国别 :
美国 (US)
星等 :
--
该卫星已列入 空间交会检测服务 Space Conjunction Data Service (SCDS) ,当前飞行风险评估等级: 无高风险
轨道信息
数据来源 国际轨道数据
星历时间: 2026-09-14T14:37:25+0800
21小时前
查看轨道信息
半长轴: 6840.824km
偏心率: 0.0001322
轨道倾角: 53.160°
近地点辐角 97.271°
升交点赤经 214.957°
平近点角 262.844°
近地点: 461.782km
远地点: 463.592km
周期: 93.847分钟
每日圈数: 15.344055
详细信息
固有亮度:
5
最大亮度:
2.5
卫星平台:
Starlink V1.0
覆盖范围:
全球
运营商:
太空探索技术公司
运营商所在国:
美国
制造商(研发单位):
太空探索技术公司
制造商所在国:
美国
使用方式:
暂无
卫星简介
Starlink 计划是 SpaceX 推出的全球卫星互联网项目,通过发射低轨道卫星,为全球尤其是偏远地区提供高速、低延迟的互联网服务。自 2019 年起,Starlink 已部署数千颗卫星,旨在缩小全球数字鸿沟,推动互联网普及。该项目还为军事、航空等行业提供通信支持,带来广泛经济效益。
2D轨道图
3D轨道图
轨道高度分析图
轨道倾角分析图
轨道综合分析图
查看轨道综合分析图
交会数据列表
事件ID 空间交会对象 最接近时刻(TCA) 交会距离 交会风险概率(CRP) 交会风险指数(CRI) 操作
CDM_260915-180404-650606-589422
NETSAT-1 (46506)
2026-09-15T
18:04:08+0000
1.701 km
极远距离
3.191764E-6 低风险 0.45
CDM_260917-081404-298806-589421
2026-09-17T
08:14:15+0000
2.703 km
极远距离
1.532161E-6 低风险 0.39
CDM_260917-090104-298806-589421
2026-09-17T
09:01:10+0000
2.715 km
极远距离
1.520671E-6 低风险 0.39
CDM_260917-101705-339006-589421
2026-09-17T
10:17:29+0000
2.719 km
极远距离
1.310584E-6 低风险 0.37
CDM_260916-185904-941906-589421
2026-09-16T
18:59:14+0000
2.828 km
极远距离
1.203256E-6 低风险 0.37
CDM_260915-014105-113906-589421
2026-09-15T
01:41:46+0000
2.550 km
极远距离
9.794722E-7 极低风险 0.35
CDM_260910-223005-420706-589421
2026-09-10T
22:30:37+0000
2.840 km
极远距离
2.955192E-7 极低风险 0.24
与全量物体交会距离演化趋势 订阅飞行安全评估服务
与全量物体交会风险概率演化趋势 订阅飞行安全评估服务